EW0890 Weather Reports


time (UTC)temp
F
wind
direction
speed
knots
gust
knots
rain 1hr
in
rain 24hr
in
rain mn
in
humidity
%
barometer
mb
20260902075008 74 268 0.9 3.5 0.00 0.00 0.00 85 1015.4
20260902074612 74 274 0.9 3.5 0.00 0.00 0.00 85 1015.3
20260902074528 74 265 0.9 3.5 0.00 0.00 0.00 85 1015.4
20260902074012 74 303 0.9 2.6 0.00 0.00 0.00 85 1015.4
20260902073515 74 290 0.9 2.6 0.00 0.00 0.00 86 1015.5
20260902073104 74 278 0.9 1.7 0.00 0.00 0.00 86 1015.3
20260902073024 74 316 0.9 1.7 0.00 0.00 0.00 86 1015.3
20260902072510 74 285 0.9 1.7 0.00 0.00 0.00 86 1015.4
20260902072009 74 288 0.0 1.7 0.00 0.00 0.00 86 1015.4
20260902071604 74 281 0.0 1.7 0.00 0.00 0.00 86 1015.5
20260902071546 74 311 0.0 1.7 0.00 0.00 0.00 86 1015.5
20260902071014 74 267 0.0 0.9 0.00 0.00 0.00 86 1015.6
20260902070505 75 284 0.0 0.9 0.00 0.00 0.00 86 1015.6
20260902070103 75 288 0.0 1.7 0.00 0.00 0.00 86 1015.6
20260902070015 75 293 0.9 1.7 0.00 0.00 0.00 86 1015.7
20260902065511 75 281 0.0 1.7 0.00 0.00 0.00 86 1015.7
20260902065008 75 285 0.9 1.7 0.00 0.00 0.00 85 1015.6
20260902064602 75 288 0.0 2.6 0.00 0.00 0.00 85 1015.6
20260902064523 75 278 0.0 2.6 0.00 0.00 0.00 85 1015.6
20260902064012 75 285 0.0 2.6 0.00 0.00 0.00 85 1015.7
20260902063510 75 274 0.9 1.7 0.00 0.00 0.00 85 1015.8
20260902063059 75 264 0.9 1.7 0.00 0.00 0.00 85 1015.7
20260902063027 75 278 0.9 1.7 0.00 0.00 0.00 85 1015.7
20260902062510 76 288 0.9 1.7 0.00 0.00 0.00 85 1015.7
20260902062011 76 296 0.9 1.7 0.00 0.00 0.00 85 1015.8
20260902061558 76 269 0.9 1.7 0.00 0.00 0.00 85 1015.7
20260902061540 76 281 0.9 1.7 0.00 0.00 0.00 85 1015.8
20260902061012 76 279 0.9 1.7 0.00 0.00 0.00 85 1015.6
20260902060512 76 289 0.9 1.7 0.00 0.00 0.00 85 1015.6
20260902060119 76 291 0.0 1.7 0.00 0.00 0.00 86 1015.7
20260902060031 76 273 0.9 1.7 0.00 0.00 0.00 86 1015.8
20260902055511 76 269 0.9 1.7 0.00 0.00 0.00 86 1015.7
20260902055007 76 284 0.9 1.7 0.00 0.00 0.00 86 1015.7
20260902054601 76 288 0.0 0.9 0.00 0.00 0.00 87 1015.7
20260902054532 76 264 0.0 0.9 0.00 0.00 0.00 87 1015.6
20260902054007 76 298 0.0 1.7 0.00 0.00 0.00 87 1015.7
20260902053512 76 298 0.0 1.7 0.00 0.00 0.00 88 1015.8
20260902053106 75 288 0.0 1.7 0.00 0.00 0.00 89 1015.6
20260902053025 75 300 0.0 1.7 0.00 0.00 0.00 89 1015.6
20260902052511 75 282 0.0 1.7 0.00 0.00 0.00 90 1015.6
20260902052012 75 269 0.0 0.9 0.00 0.00 0.00 91 1015.6
20260902051557 75 0 0.0 0.0 0.00 0.00 0.00 91 1015.6
20260902051530 75 243 0.0 0.0 0.00 0.00 0.00 92 1015.7
20260902051015 75 239 0.0 0.0 0.00 0.00 0.00 92 1015.6
20260902050511 75 156 0.0 0.0 0.00 0.00 0.00 92 1015.7
20260902050106 75 0 0.0 0.0 0.00 0.00 0.00 91 1015.7
20260902050035 75 40 0.0 0.0 0.00 0.00 0.00 91 1015.7
20260902045511 75 40 0.0 0.0 0.00 0.00 0.00 91 1015.8
20260902045010 75 40 0.0 0.0 0.00 0.00 0.00 91 1015.6
20260902044603 75 0 0.0 0.0 0.00 0.00 0.00 91 1015.6
20260902044531 75 41 0.0 0.0 0.00 0.00 0.00 91 1015.6
20260902044012 76 41 0.0 0.0 0.00 0.00 0.00 91 1015.6
20260902043511 76 64 0.0 0.0 0.00 0.00 0.00 91 1015.6
20260902043111 76 0 0.0 0.0 0.00 0.00 0.00 90 1015.6
20260902043022 76 63 0.0 0.0 0.00 0.00 0.00 90 1015.5
20260902042513 76 63 0.0 0.0 0.00 0.00 0.00 90 1015.6
20260902042013 76 63 0.0 0.0 0.00 0.00 0.00 90 1015.6
20260902041600 76 0 0.0 0.0 0.00 0.00 0.00 90 1015.6
20260902041532 76 60 0.0 0.0 0.00 0.00 0.00 90 1015.6
20260902041013 76 60 0.0 0.0 0.00 0.00 0.00 90 1015.5
20260902040512 76 122 0.0 0.0 0.00 0.00 0.00 90 1015.6
20260902040108 76 0 0.0 0.0 0.00 0.00 0.00 90 1015.7
20260902040027 76 129 0.0 0.0 0.00 0.00 0.00 90 1015.6
20260902035510 76 283 0.0 0.0 0.00 0.00 0.00 91 1015.7
20260902035015 76 237 0.0 0.9 0.00 0.00 0.00 91 1015.6
20260902034608 76 0 0.0 0.9 0.00 0.00 0.00 91 1015.7
20260902034528 76 224 0.0 0.9 0.00 0.00 0.00 91 1015.7
20260902034015 76 155 0.0 0.9 0.00 0.00 0.00 91 1015.6
20260902033514 76 220 0.0 0.0 0.00 0.00 0.00 91 1015.7
20260902033108 76 0 0.0 0.0 0.00 0.00 0.00 91 1015.8
20260902033028 76 234 0.0 0.0 0.00 0.00 0.00 91 1015.7
20260902032517 76 229 0.0 0.0 0.00 0.00 0.00 91 1015.8
20260902032012 75 243 0.0 0.0 0.00 0.00 0.00 91 1015.7
20260902031606 76 0 0.0 0.0 0.00 0.00 0.00 91 1015.8
20260902031526 76 242 0.0 0.0 0.00 0.00 0.00 91 1015.8
20260902031009 76 245 0.0 0.0 0.00 0.00 0.00 91 1015.9
20260902030515 76 245 0.0 0.0 0.00 0.00 0.00 91 1015.8
20260902030027 76 245 0.0 0.0 0.00 0.00 0.00 90 1015.8
20260902025513 76 245 0.0 0.0 0.00 0.00 0.00 90 1015.8
20260902025013 76 245 0.0 0.0 0.00 0.00 0.00 90 1015.8
20260902024601 76 0 0.0 0.0 0.00 0.00 0.00 90 1015.8
20260902024527 76 245 0.0 0.0 0.00 0.00 0.00 89 1015.7
20260902024003 76 245 0.0 0.0 0.00 0.00 0.00 89 1015.6
20260902023506 76 244 0.0 0.9 0.00 0.00 0.00 89 1015.8
20260902023105 76 0 0.0 0.9 0.00 0.00 0.00 89 1015.7
20260902023018 76 244 0.0 0.9 0.00 0.00 0.00 89 1015.7
20260902022507 76 229 0.0 0.9 0.00 0.00 0.00 89 1015.5
20260902022007 76 253 0.0 0.9 0.00 0.00 0.00 89 1015.5
20260902021603 76 0 0.0 0.9 0.00 0.00 0.00 89 1015.7
20260902021520 76 250 0.0 0.9 0.00 0.00 0.00 89 1015.6
20260902021007 77 246 0.0 0.0 0.00 0.00 0.00 89 1015.6
20260902020515 77 246 0.0 0.0 0.00 0.00 0.00 89 1015.4
20260902020105 77 0 0.0 0.0 0.00 0.00 0.00 89 1015.7
20260902020023 77 246 0.0 0.0 0.00 0.00 0.00 89 1015.4
20260902015511 77 246 0.0 0.0 0.00 0.00 0.00 89 1015.5
20260902015003 77 246 0.0 0.0 0.00 0.00 0.00 89 1015.5
20260902014600 77 0 0.0 0.0 0.00 0.00 0.00 89 1015.6
20260902014504 77 246 0.0 0.0 0.00 0.00 0.00 89 1015.4
20260902014003 77 246 0.0 0.0 0.00 0.00 0.00 89 1015.5
20260902013503 78 246 0.0 0.9 0.00 0.00 0.00 89 1015.4
20260902013059 78 0 0.0 0.9 0.00 0.00 0.00 89 1015.4
20260902013007 78 231 0.0 0.9 0.00 0.00 0.00 89 1015.3
20260902012506 78 243 0.0 0.0 0.00 0.00 0.00 89 1015.3
20260902012006 78 243 0.0 0.0 0.00 0.00 0.00 89 1015.2
20260902011608 78 0 0.0 0.0 0.00 0.00 0.00 89 1015.3
20260902011519 78 243 0.0 0.0 0.00 0.00 0.00 89 1015.2
20260902011008 78 243 0.0 0.0 0.00 0.00 0.00 88 1015.2
20260902010507 78 243 0.0 0.0 0.00 0.00 0.00 87 1015.2
20260902010101 79 0 0.0 0.0 0.00 0.00 0.00 87 1015.3
20260902010031 79 243 0.0 0.0 0.00 0.00 0.00 87 1015.1
20260902005509 79 243 0.0 0.0 0.00 0.00 0.00 86 1015.0
20260902005013 80 243 0.0 0.0 0.00 0.00 0.00 85 1015.1
20260902004608 80 0 0.0 0.0 0.00 0.00 0.00 84 1015.2
20260902004527 80 243 0.0 0.0 0.00 0.00 0.00 84 1015.1
20260902004011 81 243 0.0 0.0 0.00 0.00 0.00 82 1015.1
20260902003503 82 243 0.0 0.0 0.00 0.00 0.00 81 1015.0
20260902003105 83 0 0.0 0.0 0.00 0.00 0.00 80 1015.2
20260902003005 83 243 0.0 0.0 0.00 0.00 0.00 79 1015.0
20260902002503 85 243 0.0 0.0 0.00 0.00 0.00 78 1015.0
20260902002008 86 243 0.0 0.0 0.00 0.00 0.00 76 1015.0
20260902001607 87 0 0.0 0.0 0.00 0.00 0.00 74 1015.2
20260902001509 87 243 0.0 0.0 0.00 0.00 0.00 74 1015.0
20260902001003 88 243 0.0 0.0 0.00 0.00 0.00 73 1015.0
20260902000508 89 243 0.0 0.0 0.00 0.00 0.00 71 1015.0
20260902000101 90 0 0.0 0.0 0.00 0.00 0.00 70 1015.2
20260902000031 90 243 0.0 0.0 0.00 0.00 0.00 70 1015.0
20260901235509 91 243 0.0 0.0 0.00 0.00 0.00 69 1015.1
20260901235010 92 243 0.0 0.0 0.00 0.00 0.00 68 1015.1
20260901234613 92 0 0.0 0.0 0.00 0.00 0.00 68 1015.2
20260901234520 92 243 0.0 0.0 0.00 0.00 0.00 68 1015.1
20260901234013 93 243 0.0 0.0 0.00 0.00 0.00 67 1015.2
20260901233509 93 243 0.0 0.0 0.00 0.00 0.00 67 1015.2
20260901233105 93 0 0.0 0.0 0.00 0.00 0.00 67 1015.2
20260901233026 93 243 0.0 0.0 0.00 0.00 0.00 67 1015.2
20260901232512 94 243 0.0 0.0 0.00 0.00 0.00 66 1015.3
20260901232004 94 243 0.0 0.0 0.00 0.00 0.00 65 1015.2
20260901231605 94 0 0.0 0.9 0.00 0.00 0.00 65 1015.3
20260901231508 94 243 0.0 0.9 0.00 0.00 0.00 64 1015.2
20260901231004 94 243 0.0 0.9 0.00 0.00 0.00 64 1015.3
20260901230504 95 221 0.0 0.0 0.00 0.00 0.00 64 1015.3
20260901230108 95 0 0.0 0.9 0.00 0.00 0.00 64 1015.3
20260901230026 95 221 0.0 0.9 0.00 0.00 0.00 65 1015.3
20260901225507 95 134 0.0 0.9 0.00 0.00 0.00 65 1015.3
20260901225009 95 264 0.0 0.9 0.00 0.00 0.00 65 1015.3
20260901224605 95 0 0.0 0.9 0.00 0.00 0.00 64 1015.4
20260901224531 95 264 0.0 0.9 0.00 0.00 0.00 63 1015.3
20260901224010 95 247 0.0 0.9 0.00 0.00 0.00 63 1015.4
20260901223509 95 246 0.0 0.9 0.00 0.00 0.00 64 1015.3
20260901223104 94 246 0.0 0.9 0.00 0.00 0.00 64 1015.5
20260901223042 94 256 0.0 0.9 0.00 0.00 0.00 65 1015.3
20260901222511 94 262 0.0 2.6 0.00 0.00 0.00 64 1015.3
20260901222011 94 273 0.0 2.6 0.00 0.00 0.00 62 1015.3
20260901221608 94 255 0.0 1.7 0.00 0.00 0.00 61 1015.4
20260901221528 94 285 0.0 1.7 0.00 0.00 0.00 60 1015.2
20260901221016 94 278 0.0 1.7 0.00 0.00 0.00 61 1015.2
20260901220503 93 285 0.9 2.6 0.00 0.00 0.00 58 1015.2
20260901220121 93 307 0.9 2.6 0.00 0.00 0.00 60 1015.4
20260901220009 93 273 0.9 2.6 0.00 0.00 0.00 60 1015.3
20260901215505 93 246 0.9 2.6 0.00 0.00 0.00 61 1015.2
20260901215007 93 200 0.9 2.6 0.00 0.00 0.00 61 1015.1
20260901214603 93 0 0.9 2.6 0.00 0.00 0.00 60 1015.3
20260901214516 93 248 0.9 2.6 0.00 0.00 0.00 61 1015.1
20260901214008 93 281 0.9 2.6 0.00 0.00 0.00 58 1015.1
20260901213508 93 269 0.9 2.6 0.00 0.00 0.00 60 1015.2
20260901213114 93 271 0.9 3.5 0.00 0.00 0.00 61 1015.3
20260901213031 93 254 0.9 3.5 0.00 0.00 0.00 61 1015.2
20260901212511 93 297 1.7 3.5 0.00 0.00 0.00 61 1015.2
20260901212012 93 286 0.9 3.5 0.00 0.00 0.00 61 1015.2
20260901211604 93 263 1.7 4.3 0.00 0.00 0.00 59 1015.4
20260901211528 93 242 1.7 4.3 0.00 0.00 0.00 58 1015.2
20260901211015 93 246 1.7 4.3 0.00 0.00 0.00 60 1015.2
20260901210515 93 270 0.9 4.3 0.00 0.00 0.00 63 1015.2
20260901210109 93 286 1.7 4.3 0.00 0.00 0.00 61 1015.5
20260901210038 93 288 1.7 4.3 0.00 0.00 0.00 61 1015.3
20260901205517 93 277 0.9 3.5 0.00 0.00 0.00 63 1015.3
20260901205002 93 283 1.7 3.5 0.00 0.00 0.00 59 1015.3
20260901204605 93 285 1.7 3.5 0.00 0.00 0.00 60 1015.5
20260901204515 93 306 1.7 3.5 0.00 0.00 0.00 61 1015.3
20260901204006 93 273 1.7 3.5 0.00 0.00 0.00 60 1015.3
20260901203507 93 287 1.7 4.3 0.00 0.00 0.00 62 1015.4
20260901203106 93 295 1.7 4.3 0.00 0.00 0.00 64 1015.5
20260901203019 93 275 1.7 4.3 0.00 0.00 0.00 63 1015.3
20260901202509 93 276 1.7 4.3 0.00 0.00 0.00 61 1015.4
20260901202009 93 281 1.7 4.3 0.00 0.00 0.00 62 1015.3
20260901201605 93 285 1.7 4.3 0.00 0.00 0.00 60 1015.5
20260901201522 93 284 1.7 4.3 0.00 0.00 0.00 59 1015.3
20260901201011 93 268 1.7 3.5 0.00 0.00 0.00 61 1015.3
20260901200512 93 291 0.9 3.5 0.00 0.00 0.00 60 1015.3
20260901200104 93 276 1.7 4.3 0.00 0.00 0.00 62 1015.6
20260901200041 93 282 1.7 4.3 0.00 0.00 0.00 62 1015.5
20260901195512 93 288 1.7 4.3 0.00 0.00 0.00 61 1015.6
20260901195013 93 260 2.6 4.3 0.00 0.00 0.00 60 1015.6
20260901194607 93 303 2.6 4.3 0.00 0.00 0.00 62 1015.7
20260901194542 93 309 2.6 4.3 0.00 0.00 0.00 60 1015.6
20260901194016 93 269 1.7 7.0 0.00 0.00 0.00 63 1015.6
20260901193507 93 290 1.7 7.0 0.00 0.00 0.00 62 1015.6
20260901193116 93 193 1.7 5.2 0.00 0.00 0.00 63 1015.8
20260901193011 93 277 1.7 5.2 0.00 0.00 0.00 61 1015.7
20260901192505 93 280 2.6 5.2 0.00 0.00 0.00 62 1015.7
20260901192009 93 284 1.7 5.2 0.00 0.00 0.00 63 1015.8
20260901191607 93 299 1.7 5.2 0.00 0.00 0.00 60 1015.9
20260901191528 93 285 2.6 5.2 0.00 0.00 0.00 62 1015.8
20260901191012 93 301 1.7 4.3 0.00 0.00 0.00 62 1015.8
20260901190509 92 290 2.6 4.3 0.00 0.00 0.00 63 1015.8
20260901190023 92 288 1.7 5.2 0.00 0.00 0.00 63 1015.8
20260901185516 92 277 2.6 5.2 0.00 0.00 0.00 62 1015.9
20260901185011 92 304 1.7 4.3 0.00 0.00 0.00 63 1016.0
20260901184603 92 221 1.7 4.3 0.00 0.00 0.00 66 1016.2
20260901184529 92 259 1.7 4.3 0.00 0.00 0.00 66 1015.9
20260901184017 92 219 1.7 4.3 0.00 0.00 0.00 63 1015.9
20260901183518 92 284 2.6 5.2 0.00 0.00 0.00 63 1015.9
20260901183103 92 276 2.6 5.2 0.00 0.00 0.00 65 1016.2
20260901183030 92 271 2.6 5.2 0.00 0.00 0.00 65 1015.9
20260901182515 91 288 3.5 5.2 0.00 0.00 0.00 64 1016.0
20260901182003 91 294 1.7 7.0 0.00 0.00 0.00 66 1016.1
20260901181603 91 288 3.5 7.0 0.00 0.00 0.00 65 1016.2
20260901181518 91 274 3.5 7.0 0.00 0.00 0.00 63 1016.1
20260901181008 91 266 2.6 6.1 0.00 0.00 0.00 65 1016.2
20260901180511 91 283 2.6 6.1 0.00 0.00 0.00 66 1016.1
20260901180030 91 252 4.3 6.1 0.00 0.00 0.00 63 1016.1
20260901175513 91 274 3.5 6.1 0.00 0.00 0.00 63 1016.1
20260901175011 91 261 2.6 4.3 0.00 0.00 0.00 65 1016.3
20260901174605 91 292 1.7 3.5 0.00 0.00 0.00 67 1016.4
20260901174528 91 278 2.6 3.5 0.00 0.00 0.00 67 1016.4
20260901174017 91 260 1.7 4.3 0.00 0.00 0.00 67 1016.3
20260901173504 91 281 2.6 4.3 0.00 0.00 0.00 65 1016.4
20260901173102 90 183 2.6 6.1 0.00 0.00 0.00 66 1016.6
20260901173006 90 282 2.6 6.1 0.00 0.00 0.00 66 1016.4
20260901172504 90 285 2.6 6.1 0.00 0.00 0.00 68 1016.4
20260901172004 90 264 1.7 5.2 0.00 0.00 0.00 69 1016.3
20260901171605 90 289 2.6 6.1 0.00 0.00 0.00 68 1016.4
20260901171510 90 298 2.6 6.1 0.00 0.00 0.00 67 1016.3
20260901171004 89 234 2.6 7.0 0.00 0.00 0.00 67 1016.6
20260901170507 89 259 3.5 7.0 0.00 0.00 0.00 67 1016.5
20260901170121 89 256 3.5 6.1 0.00 0.00 0.00 67 1016.6
20260901170028 89 278 3.5 6.1 0.00 0.00 0.00 67 1016.4
20260901165507 89 296 2.6 5.2 0.00 0.00 0.00 69 1016.5
20260901165015 89 241 3.5 5.2 0.00 0.00 0.00 68 1016.6
20260901164607 89 308 2.6 5.2 0.00 0.00 0.00 69 1016.5
20260901164523 88 228 2.6 5.2 0.00 0.00 0.00 69 1016.6
20260901164013 88 244 2.6 5.2 0.00 0.00 0.00 70 1016.5
20260901163513 88 286 2.6 5.2 0.00 0.00 0.00 70 1016.6
20260901163108 88 296 2.6 5.2 0.00 0.00 0.00 71 1016.5
20260901163027 88 228 2.6 5.2 0.00 0.00 0.00 70 1016.6
20260901162512 88 286 2.6 4.3 0.00 0.00 0.00 71 1016.7
20260901162004 87 288 1.7 4.3 0.00 0.00 0.00 69 1016.6
20260901161602 87 275 2.6 4.3 0.00 0.00 0.00 69 1016.7
20260901161508 87 295 2.6 4.3 0.00 0.00 0.00 71 1016.7
20260901161004 87 292 2.6 4.3 0.00 0.00 0.00 69 1016.7
20260901160508 87 292 1.7 5.2 0.00 0.00 0.00 71 1016.7
20260901160017 87 290 2.6 5.2 0.00 0.00 0.00 71 1016.7
20260901155507 86 288 1.7 5.2 0.00 0.00 0.00 72 1016.6
20260901155008 86 238 2.6 5.2 0.00 0.00 0.00 73 1016.6
20260901154640 86 282 2.6 7.0 0.00 0.00 0.00 73 1016.6
20260901154519 86 264 2.6 7.0 0.00 0.00 0.00 73 1016.7
20260901154008 85 266 3.5 7.0 0.00 0.00 0.00 70 1016.7
20260901153508 85 219 3.5 7.0 0.00 0.00 0.00 71 1016.6
20260901153117 85 288 3.5 7.0 0.00 0.00 0.00 71 1016.6
20260901153027 85 286 3.5 7.0 0.00 0.00 0.00 73 1016.5
20260901152511 85 285 2.6 6.1 0.00 0.00 0.00 74 1016.6
20260901152014 85 249 2.6 5.2 0.00 0.00 0.00 73 1016.6
20260901151605 85 249 2.6 7.0 0.00 0.00 0.00 73 1016.5
20260901151529 84 263 2.6 7.0 0.00 0.00 0.00 74 1016.4
20260901151013 84 267 3.5 7.0 0.00 0.00 0.00 73 1016.5
20260901150506 84 274 2.6 7.0 0.00 0.00 0.00 74 1016.4
20260901150111 84 275 3.5 7.0 0.00 0.00 0.00 74 1016.5
20260901150009 84 307 3.5 7.0 0.00 0.00 0.00 75 1016.5
20260901145504 83 261 3.5 7.0 0.00 0.00 0.00 74 1016.5
20260901145006 83 295 3.5 7.0 0.00 0.00 0.00 74 1016.5
20260901144603 83 288 4.3 7.0 0.00 0.00 0.00 74 1016.5
20260901144515 83 294 4.3 7.0 0.00 0.00 0.00 74 1016.4
20260901144007 83 200 3.5 7.0 0.00 0.00 0.00 76 1016.5
20260901143508 82 299 5.2 7.0 0.00 0.00 0.00 74 1016.4
20260901143106 82 280 2.6 6.1 0.00 0.00 0.00 77 1016.4
20260901143023 82 257 2.6 6.1 0.00 0.00 0.00 76 1016.5
20260901142511 82 283 3.5 6.1 0.00 0.00 0.00 77 1016.5
20260901142013 81 289 4.3 7.8 0.00 0.00 0.00 76 1016.5
20260901141603 81 278 4.3 7.8 0.00 0.00 0.00 77 1016.4
20260901141536 81 303 4.3 7.8 0.00 0.00 0.00 76 1016.4
20260901141014 81 285 2.6 6.1 0.00 0.00 0.00 78 1016.5
20260901140512 81 269 3.5 7.0 0.00 0.00 0.00 77 1016.4
20260901140109 80 250 2.6 7.8 0.00 0.00 0.00 78 1016.5
20260901140031 80 290 2.6 7.8 0.00 0.00 0.00 79 1016.5
20260901135519 80 301 4.3 7.8 0.00 0.00 0.00 77 1016.5
20260901135002 80 290 3.5 7.8 0.00 0.00 0.00 77 1016.5
20260901134608 80 291 3.5 5.2 0.00 0.00 0.00 78 1016.5
20260901134513 80 301 3.5 5.2 0.00 0.00 0.00 78 1016.5
20260901134003 80 273 1.7 4.3 0.00 0.00 0.00 79 1016.6
20260901133505 80 308 2.6 4.3 0.00 0.00 0.00 79 1016.5
20260901133112 80 252 1.7 5.2 0.00 0.00 0.00 81 1016.4
20260901133015 79 286 1.7 5.2 0.00 0.00 0.00 81 1016.4
20260901132509 79 226 1.7 5.2 0.00 0.00 0.00 80 1016.4
20260901132011 79 281 1.7 3.5 0.00 0.00 0.00 81 1016.4
20260901131603 79 265 1.7 4.3 0.00 0.00 0.00 81 1016.3
20260901131531 78 276 2.6 4.3 0.00 0.00 0.00 81 1016.4
20260901131011 78 268 2.6 4.3 0.00 0.00 0.00 81 1016.4
20260901130515 78 289 1.7 4.3 0.00 0.00 0.00 82 1016.3
20260901130029 78 289 1.7 4.3 0.00 0.00 0.00 82 1016.2
20260901125514 77 307 2.6 4.3 0.00 0.00 0.00 82 1016.2
20260901125016 77 292 1.7 5.2 0.00 0.00 0.00 83 1016.2
20260901124606 77 245 2.6 5.2 0.00 0.00 0.00 83 1016.3
20260901124533 77 294 2.6 5.2 0.00 0.00 0.00 83 1016.3
20260901124021 77 279 1.7 4.3 0.00 0.00 0.00 83 1016.3
20260901123504 76 278 1.7 5.2 0.00 0.00 0.00 83 1016.2
20260901123119 76 263 1.7 5.2 0.00 0.00 0.00 84 1016.2
20260901123014 76 290 1.7 5.2 0.00 0.00 0.00 84 1016.2
20260901122506 76 279 2.6 5.2 0.00 0.00 0.00 84 1016.2
20260901122007 76 264 1.7 5.2 0.00 0.00 0.00 84 1016.1
20260901121607 75 291 2.6 4.3 0.00 0.00 0.00 84 1016.1
20260901121524 75 250 2.6 4.3 0.00 0.00 0.00 84 1016.2
20260901121011 75 255 1.7 5.2 0.00 0.00 0.00 85 1016.0
20260901120511 75 223 2.6 5.2 0.00 0.00 0.00 86 1015.9
20260901120118 74 300 1.7 5.2 0.00 0.00 0.00 86 1015.9
20260901120027 74 266 1.7 5.2 0.00 0.00 0.00 86 1015.9
20260901115516 74 267 1.7 5.2 0.00 0.00 0.00 87 1015.9
20260901115014 74 279 1.7 3.5 0.00 0.00 0.00 88 1015.9
20260901114602 73 278 1.7 3.5 0.00 0.00 0.00 88 1015.8
20260901114531 73 296 1.7 3.5 0.00 0.00 0.00 88 1015.9
20260901114016 73 281 0.9 3.5 0.00 0.00 0.00 88 1015.8
20260901113515 73 285 0.9 3.5 0.00 0.00 0.00 89 1015.7
20260901113118 73 283 1.7 2.6 0.00 0.00 0.00 89 1015.7
20260901113033 73 288 1.7 2.6 0.00 0.00 0.00 89 1015.6
20260901112516 72 252 1.7 3.5 0.00 0.00 0.00 90 1015.6
20260901112011 72 278 0.9 3.5 0.00 0.00 0.00 90 1015.6
20260901111606 72 260 0.9 3.5 0.00 0.00 0.00 90 1015.6
20260901111518 72 291 0.9 3.5 0.00 0.00 0.00 90 1015.5
20260901111006 72 284 0.9 2.6 0.00 0.00 0.00 90 1015.4
20260901110510 72 253 0.9 2.6 0.00 0.00 0.00 90 1015.3
20260901110108 72 262 0.9 2.6 0.00 0.00 0.00 90 1015.5
20260901110026 72 264 0.9 2.6 0.00 0.00 0.00 90 1015.4
20260901105509 72 252 0.9 2.6 0.00 0.00 0.00 90 1015.4
20260901105014 72 297 0.9 2.6 0.00 0.00 0.00 91 1015.4
20260901104600 72 288 0.9 2.6 0.00 0.00 0.00 91 1015.4
20260901104530 72 299 0.9 2.6 0.00 0.00 0.00 91 1015.3
20260901104016 72 276 0.9 2.6 0.00 0.00 0.00 91 1015.3
20260901103516 72 260 0.9 1.7 0.00 0.00 0.00 90 1015.4
20260901103109 72 278 0.9 2.6 0.00 0.00 0.00 90 1015.4
20260901103032 72 263 0.9 2.6 0.00 0.00 0.00 90 1015.5
20260901102517 72 301 0.9 2.6 0.00 0.00 0.00 90 1015.4
20260901102015 73 278 0.0 1.7 0.00 0.00 0.00 89 1015.4
20260901101603 73 289 0.0 2.6 0.00 0.00 0.00 89 1015.5
20260901101531 73 286 0.0 2.6 0.00 0.00 0.00 88 1015.4
20260901101020 73 259 0.9 2.6 0.00 0.00 0.00 88 1015.5
20260901100508 73 258 0.9 2.6 0.00 0.00 0.00 88 1015.5
20260901100108 73 259 0.9 2.6 0.00 0.00 0.00 89 1015.5
20260901100027 73 240 0.9 2.6 0.00 0.00 0.00 89 1015.4
20260901095517 73 264 0.9 2.6 0.00 0.00 0.00 89 1015.4
20260901095012 73 284 0.9 2.6 0.00 0.00 0.00 89 1015.4
20260901094601 73 258 0.9 3.5 0.00 0.00 0.00 89 1015.3
20260901094526 73 295 0.9 2.6 0.00 0.00 0.00 89 1015.3
20260901094015 73 257 0.9 3.5 0.00 0.00 0.00 88 1015.2
20260901093514 73 272 0.9 4.3 0.00 0.00 0.00 88 1015.2
20260901093106 73 284 0.9 4.3 0.00 0.00 0.00 88 1015.2
20260901093031 73 267 0.9 4.3 0.00 0.00 0.00 88 1015.2
20260901092518 73 264 0.9 2.6 0.00 0.00 0.00 88 1015.2
20260901092019 73 292 0.9 2.6 0.00 0.00 0.00 88 1015.2
20260901091606 73 289 0.9 2.6 0.00 0.00 0.00 88 1015.3
20260901091532 74 274 0.9 2.6 0.00 0.00 0.00 87 1015.2
20260901091018 74 256 0.9 2.6 0.00 0.00 0.00 87 1015.2
20260901090518 74 278 0.9 3.5 0.00 0.00 0.00 87 1015.2
20260901090104 74 275 0.9 3.5 0.00 0.00 0.00 87 1015.3
20260901090041 74 278 0.9 3.5 0.00 0.00 0.00 87 1015.2
20260901085507 74 249 0.9 2.6 0.00 0.00 0.00 87 1015.2
20260901085007 74 295 0.9 2.6 0.00 0.00 0.00 87 1015.2
20260901084604 74 270 0.9 2.6 0.00 0.00 0.00 87 1015.3
20260901084524 74 281 0.9 2.6 0.00 0.00 0.00 87 1015.2
20260901084011 74 300 0.9 2.6 0.00 0.00 0.00 87 1015.1
20260901083512 74 250 0.9 2.6 0.00 0.00 0.00 87 1015.2
20260901083101 74 277 0.9 2.6 0.00 0.00 0.00 87 1015.3
20260901083036 74 258 0.9 2.6 0.00 0.00 0.00 87 1015.2
20260901082515 74 283 0.9 2.6 0.00 0.00 0.00 87 1015.2
20260901082015 74 222 0.9 2.6 0.00 0.00 0.00 87 1015.3
20260901081603 74 274 0.9 2.6 0.00 0.00 0.00 87 1015.3
20260901081532 74 283 0.9 2.6 0.00 0.00 0.00 87 1015.2
20260901081013 74 312 0.9 2.6 0.00 0.00 0.00 87 1015.3
20260901080518 74 290 1.7 2.6 0.00 0.00 0.00 87 1015.2
20260901080112 74 288 1.7 2.6 0.00 0.00 0.00 87 1015.2
20260901080034 74 266 0.9 2.6 0.00 0.00 0.00 87 1015.2
20260901075519 74 281 1.7 2.6 0.00 0.00 0.00 87 1015.3
20260901075017 74 248 0.9 2.6 0.00 0.00 0.00 87 1015.2